Regional Weather Roundup
Issued by NWS Upton, NY

Current Version | Previous Version | Graphics & Text | Print | Product List | Glossary Off
Versions: 1 2 3 4 5 6 7 8 9 10 11 12 13 14 15 16 17 18 19 20 21 22 23 24 25 26 27 28 29 30 31 32 33 34 35 36 37 38 39 40 41 42 43 44 45 46 47 48 49 50

000
ASUS41 KOKX 180905
RWROKX

REGIONAL WEATHER ROUNDUP
NATIONAL WEATHER SERVICE NEW YORK NY
500 AM EDT THU SEP 18 2014

NOTE: "FAIR" INDICATES FEW OR NO CLOUDS BELOW 12,000 FEET WITH NO
SIGNIFICANT WEATHER AND/OR OBSTRUCTIONS TO VISIBILITY.

NYZ071-072-176-178-NJZ106-104-181000-
NEW YORK CITY METRO AREA


CITY           SKY/WX    TMP DP  RH WIND       PRES   REMARKS
CENTRAL PARK   CLEAR     60  51  72 CALM      29.99S
LAGUARDIA APRT CLEAR     63  52  67 W3        29.96R
KENNEDY INTL   CLEAR     61  53  75 W7        29.97S
NEWARK/LIBERTY CLEAR     56  51  84 CALM      29.97R
BRNX BOT. GARD   N/A     57  50  77 E2        29.99R
TETERBORO      CLEAR     54  47  77 CALM      29.96S
$$

NYZ177-179-078>081-181000-
LONG ISLAND NEW YORK

CITY           SKY/WX    TMP DP  RH WIND       PRES   REMARKS
FARMINGDALE    CLEAR     57  52  83 CALM      29.97R
ISLIP          CLEAR     55  51  86 CALM      29.95R
SHIRLEY        CLEAR     50  48  93 CALM      29.97R
WESTHAMPTON    CLEAR     44  40  85 CALM      29.98R
MONTAUK POINT    N/A     59  54  83 CALM      29.97R
$$

NYZ052-065-067-181000-
HUDSON VALLEY

CITY           SKY/WX    TMP DP  RH WIND       PRES   REMARKS
WHITE PLAINS   CLEAR     50  48  93 NW6       29.97R
NEWBURGH       CLEAR     48  46  93 CALM      29.98S
MONTGOMERY     FOG       41  39  93 CALM      29.98R VSB 1
POUGHKEEPSIE   MOCLDY    45  42  89 CALM      29.98R
ALBANY         PTCLDY    44  41  89 CALM      29.97S
$$

NJZ001-105-106-008-010-013-015-019>022-104-181000-
NEW JERSEY

CITY           SKY/WX    TMP DP  RH WIND       PRES   REMARKS
NEWARK/LIBERTY CLEAR     56  51  84 CALM      29.97R
TETERBORO      CLEAR     54  47  77 CALM      29.96S
CALDWELL       CLEAR     48  44  86 CALM      29.98S
MORRISTOWN     MOCLDY    43  41  93 CALM      29.98S
SOMERVILLE     CLEAR     45  42  89 CALM      29.96S
LINDEN         FAIR      58  54  86 CALM      29.99R
SUSSEX         PTCLDY    43  40  89 CALM      29.99R
ANDOVER          N/A     43  43 100 CALM      29.99R
TRENTON        CLEAR     50  47  89 NW3       29.97S
MILLVILLE      CLEAR     49  47  93 CALM      29.98R
ATLANTIC CITY  CLEAR     51  48  89 NW5       29.97R
WRIGHTSTOWN    CLEAR     49  48  99 E2        29.95S
TOMS RIVER     CLEAR     43  39  87 CALM      29.98R
BELMAR         CLEAR     54  46  76 NW3       29.97S
$$

PAZ047>061-062-071-181000-
EASTERN PENNSYLVANIA

CITY           SKY/WX    TMP DP  RH WIND       PRES   REMARKS
PHILADELPHIA   CLEAR     58  51  78 NW5       29.98R
ALLENTOWN      PTCLDY    46  44  93 CALM      29.99R
SCRANTON       MOCLDY    47  42  83 E3        29.99R
$$

CTZ002-004>006-009-010-012-RIZ004-006-007-MAZ004-011-015-181000-
SOUTHERN NEW ENGLAND
 IN CT

CITY           SKY/WX    TMP DP  RH WIND       PRES   REMARKS
BRADLEY INTL   CLEAR     45  42  89 W3        29.97R
HARTFORD       CLEAR     47  45  93 SE8       29.97R
DANBURY        CLEAR     44  42  93 CALM      29.99R
WTRBRY/OXFORD  PTCLDY    46  41  81 N3        29.98S
BRIDGEPORT     MOCLDY    53  50  89 CALM      29.97R
MERIDEN        PTCLDY    45  43  93 CALM      29.97S
NEW HAVEN      MOCLDY    52  47  83 N3        29.97R
CHESTER        FAIR      52  46  82 NW3       29.97R
GROTON         CLEAR     48  47  96 N3        29.96R
WILLIMANTIC    CLEAR     43  41  93 CALM      29.98R

 IN RI

CITY           SKY/WX    TMP DP  RH WIND       PRES   REMARKS
PROVIDENCE     CLEAR     50  46  86 W3        29.96S
BLOCK ISLAND   CLEAR     55  52  88 W3        29.95S
WESTERLY       CLEAR     45  43  93 CALM      29.97R

 IN MA

CITY           SKY/WX    TMP DP  RH WIND       PRES   REMARKS
BOSTON         CLEAR     56  46  69 W7        29.94R
WORCESTER      CLEAR     50  43  77 W9        29.96R
WESTFIELD      FOG       42  41  96 CALM      29.97R VSB 3/4
PROVINCETOWN   CLEAR     57  48  72 W7        29.95R
NANTUCKET      CLEAR     51  48  89 CALM      29.94R
$$

ANZ330-335-338-340-345-350-353-355-181000-
COASTAL MARINE OBSERVATIONS


STATION/POSITION TIME  SKY/WX   TEMP    WIND        PRES    VSBY  WAVE
                                AIR SEA DIR/SP/G                  HT/PER
                 (UTC)          (F)     (DEG/KT/KT) (MB)    (MI)  (FT/S)
NY HARB ENTRANCE 0900            65 70  260/  8/ 10 1014.9          3/14
4S FIRE IS       0900               70                N/A           4/14
23SW MTP         0900                                 N/A           4/13
HUDSON CANYON    0900            67 73   10/ 10/ 14 1013.6          5/13
EXECUTION ROCKS  0900            62 71  280/  4/  6   N/A
WESTERN LI SOUND 0900            62     280/  6/  8   N/A           0
CENTRAL LI SOUND 0900            64 71  290/  8/ 10   N/A           1
EASTERN LI SOUND 0800            59 68  360/  6/  8   N/A
ROBBINS REEF     0900            60     290/  7/  7 1013.6
$$


>>>>>>>>>>>>>>>>>>>>>>>>>>>> KEY <<<<<<<<<<<<<<<<<<<<<<<<<<<
>                                                          <
>     SKY/WX - SKY CONDITION/PRESENT WEATHER               <
>     TMP    - TEMPERATURE IN FAHRENHEIT                   <
>     DP     - DEWPOINT IN FAHRENHEIT                      <
>     RH     - RELATIVE HUMIDITY IN PERCENT                <
>     WIND   - DIRECTION AND SPEED IN MPH                  <
>     PRES   - MEAN SEA LEVEL PRESSURE IN INCHES OF HG     <
>     WCI    - WIND CHILL INDEX                            <
>     VSB    - VISIBILITY IN MILES                         <
>     HX     - HEAT INDEX                                  <
>     TC     - TEMPERATURE IN CELSIUS                      <
>     VRB    - VARIABLE WIND DIRECTION                     <
>                                                          <
>>>>>>>>>>>>>>>>>>>>>>>>>>>> KEY <<<<<<<<<<<<<<<<<<<<<<<<<<<




USA.gov is the U.S. government's official web portal to all federal, state and local government web resources and services.